Regional Weather Roundup
Issued by NWS

Home | Current Version | Previous Version | Graphics & Text | Print | Product List | Glossary On
Versions: 1 2 3 4 5 6 7 8 9 10 11 12 13 14 15 16 17 18 19 20 21 22 23 24 25 26 27 28 29 30 31 32 33 34 35 36 37 38 39 40 41 42 43 44 45 46 47 48 49 50
000
ASUS45 KCYS 231810
RWRWY

WYOMING REGIONAL WEATHER ROUNDUP
NATIONAL WEATHER SERVICE CHEYENNE WY
1200 PM MDT FRI JUN 23 2017

NOTE:  "FAIR" INDICATES FEW OR NO CLOUDS BELOW 12,000 FEET
WITH NO SIGNIFICANT WEATHER AND/OR OBSTRUCTIONS TO VISIBILITY.

WYZ001-231900-
YELLOWSTONE NATIONAL PARK

CITY           SKY/WX    TMP DP  RH WIND       PRES   REMARKS
LK YELLOWSTONE   N/A     53  27  36 VRB5      30.36S
6HR MIN TEMP:  27; 6HR MAX TEMP:  53;

W YELLOWSTONE  NOT AVBL

$$
WYZ002>013-054>058-071-098>099-231900-
NORTHERN WYOMING

CITY           SKY/WX    TMP DP  RH WIND       PRES   REMARKS
JACKSON        SUNNY     63  34  34 CALM      30.28F
CODY           FAIR      60  22  23 NE7       30.30F
GREYBULL       FAIR      69  25  19 NW20      30.24F
6HR MIN TEMP:  46; 6HR MAX TEMP:  69;

WORLAND        FAIR      65  22  19 MISG      30.26F
6HR MIN TEMP:  43; 6HR MAX TEMP:  66;

SHERIDAN       FAIR      64  35  34 N21       30.27F
6HR MIN TEMP:  39; 6HR MAX TEMP:  64;

BUFFALO        FAIR      61  33  35 N23G35    30.28S
6HR MIN TEMP:  40; 6HR MAX TEMP:  62;

GILLETTE       FAIR      63  32  31 NW20G28   30.25S
6HR MIN TEMP:  41; 6HR MAX TEMP:  63;

NEWCASTLE      FAIR      59  30  33 N16G26    30.24F

$$
WYZ014>020-022>026-101>103-231900-
CENTRAL WYOMING

CITY           SKY/WX    TMP DP  RH WIND       PRES   REMARKS
BIG PINEY      FAIR      60  31  33 CALM      30.32F
6HR MIN TEMP:  40; 6HR MAX TEMP:  61;

PINEDALE       FAIR      59  32  36 CALM      30.33F
DUBOIS         FAIR      55  32  41 E8        30.30F
LANDER         FAIR      60  33  36 N8        30.29F
6HR MIN TEMP:  42; 6HR MAX TEMP:  61;

RIVERTON       FAIR      61  29  29 VRB5      30.29F
6HR MIN TEMP:  43; 6HR MAX TEMP:  62;

CASPER         FAIR      64  31  28 NE13G18   30.28F
6HR MIN TEMP:  39; 6HR MAX TEMP:  64;

DOUGLAS        CLOUDY    64  31  28 N13       30.28S
6HR MIN TEMP:  44; 6HR MAX TEMP:  64;


$$
WYZ021-027>030-104>119-231900-
SOUTHERN WYOMING

CITY           SKY/WX    TMP DP  RH WIND       PRES   REMARKS
EVANSTON       FAIR      68  36  30 VRB3      30.31F
6HR MIN TEMP:  47; 6HR MAX TEMP:  68;

KEMMERER         N/A     63  32  31 SW7       30.33S
FORT BRIDGER   FAIR      65  31  28 NW6       30.34S
ROCK SPRINGS   FAIR      64  29  26 NW7       30.29F
6HR MIN TEMP:  44; 6HR MAX TEMP:  65;

DIXON          FAIR      71  32  23 SW7       30.28S
RAWLINS        FAIR      65  33  30 VRB6      30.30S
6HR MIN TEMP:  43; 6HR MAX TEMP:  65;

SARATOGA       FAIR      66  34  30 NW10G20   30.29S
LARAMIE        FAIR      62  36  37 N9        30.28F
6HR MIN TEMP:  43; 6HR MAX TEMP:  62;

CHEYENNE       FAIR      58  38  47 S8        30.28F
6HR MIN TEMP:  45; 6HR MAX TEMP:  60;

TORRINGTON     FAIR      66  32  28 N12G21    30.22F
6HR MIN TEMP:  51; 6HR MAX TEMP:  67;

PINE BLUFFS    CLOUDY    57  36  44 CALM      30.28F

$$



USA.gov is the U.S. government's official web portal to all federal, state and local government web resources and services.